Weather History for Kulusuk, Greenland

Change the Weather History Date:

Monday, January 13, 2014

  Actual Average Record
Temperature  
Mean Temperature 30 °F -  
Max Temperature 32 °F 20 °F 60 °F (2007)
Min Temperature 28 °F 17 °F 0 °F (2006)
Degree Days  
Heating Degree Days 35    
Moisture  
Dew Point 22 °F    
Average Humidity 70    
Maximum Humidity 93    
Minimum Humidity 28    
Precipitation  
Precipitation 0.00 in - - ()
Sea Level Pressure  
Sea Level Pressure 29.63 in    
Wind  
Wind Speed 29 mph ()    
Max Wind Speed 48 mph    
Max Gust Speed 90 mph    
Visibility 1.7 miles    
Events Rain , Snow    
Averages and records for this station are not official NWS values.
T = Trace of Precipitation, MM = Missing Value Source: Averaged Metar Reports

Daily Weather History Graph

Daily Weather History Graph

Search for Another Location

Airport:

Trip Planner

Search our weather history database for the weather conditions in past years. The results will help you decide how hot, cold, wet, or windy it might be!

Date:

Astronomy

Jan. 13, 2014 Rise Set
Actual Time 9:20 AM WGT 1:54 PM WGT
Civil Twilight 8:02 AM WGT 3:12 PM WGT
Nautical Twilight 6:53 AM WGT 4:22 PM WGT
Astronomical Twilight 5:51 AM WGT 5:23 PM WGT
Moon 12:14 PM WGT (1/13) 6:50 AM WGT (1/13)
Length of Visible Light 7h 09m
Length of Day
4h 34m
Waxing Gibbous, 94% of the Moon is Illuminated
Jan 13
Waxing Gibbous
Jan 16
Full
Jan 24
Last Quarter
Jan 30
New
Feb 6
First Quarter

Hourly Weather History & Observations

Time (WGT) Temp. Windchill Dew Point Humidity Pressure Visibility Wind Dir Wind Speed Gust Speed Precip Events Conditions
12:00 AM 31 °F - 13 °F 34% 29.57 in 7 mi ENE 26.5 mph - - Snow Light Snow Showers
12:20 AM 30.2 °F 16.2 °F 17.6 °F 60% 29.53 in 6.2 mi ENE 25.3 mph 41.4 mph N/A Snow Light Snow Showers
12:50 AM 30.2 °F 16.8 °F 14.0 °F 51% 29.56 in 6.2 mi ENE 23.0 mph 39.1 mph N/A Rain Light Freezing Rain
1:00 AM 31 °F - 15 °F 38% 29.56 in 6 mi ENE 24.2 mph - - Rain Light Freezing Rain
1:20 AM 32.0 °F 19.5 °F 15.8 °F 51% 29.53 in 6.2 mi NE 21.9 mph 42.6 mph N/A Rain Light Rain Showers
1:50 AM 30.2 °F 17.4 °F 17.6 °F 60% 29.53 in 6.2 mi ENE 20.7 mph 33.4 mph N/A   Scattered Clouds
2:00 AM 32 °F - 11 °F 28% 29.54 in 7 mi ENE 19.6 mph - - Rain Rain
2:20 AM 32.0 °F 20.5 °F 14.0 °F 48% 29.50 in 6.2 mi NE 18.4 mph 35.7 mph N/A Rain Light Rain Showers
2:50 AM 32.0 °F 20.5 °F 14.0 °F 48% 29.50 in 6.2 mi ENE 18.4 mph 38.0 mph N/A Rain Light Rain Showers
3:00 AM 31 °F - 14 °F 35% 29.55 in 11 mi ENE 18.4 mph - - Rain Light Freezing Rain
3:20 AM 32.0 °F 19.5 °F 17.6 °F 55% 29.50 in 5.6 mi NE 21.9 mph 42.6 mph N/A Rain Light Rain Showers
3:50 AM 30.2 °F 15.7 °F 21.2 °F 69% 29.50 in 1.7 mi NE 27.6 mph 43.7 mph N/A Snow Light Snow Showers
4:00 AM 30 °F - 21 °F 57%  in 1 mi NE 24.2 mph - - Snow Light Snow Showers
4:20 AM 30.2 °F 16.8 °F 23.0 °F 75% 29.50 in 1.5 mi ENE 23.0 mph - N/A Snow Light Snow
4:50 AM 30.2 °F 16.5 °F 26.6 °F 86% 29.50 in 0.7 mi NE 24.2 mph 47.2 mph N/A Snow Light Snow
5:00 AM 29 °F - 26 °F 82% 29.53 in 0 mi ENE 28.8 mph - - Snow Light Snow
5:20 AM 30.2 °F 15.9 °F 26.6 °F 86% 29.50 in 0.5 mi ENE 26.5 mph 48.3 mph N/A Snow Light Snow
5:50 AM 30.2 °F 15.2 °F 26.6 °F 86% 29.50 in 0.2 mi ENE 29.9 mph 63.3 mph N/A Snow Snow
6:00 AM 30 °F - 27 °F 82% 29.53 in 0 mi ENE 31.1 mph - - Snow Snow
6:20 AM 30.2 °F 14.7 °F 26.6 °F 86% 29.50 in 0.4 mi ENE 32.2 mph 52.9 mph N/A Snow Snow
6:50 AM 30.2 °F 15.4 °F 26.6 °F 86% 29.50 in 0.4 mi ENE 28.8 mph 47.2 mph N/A Snow Snow
7:00 AM 31 °F - 27 °F 77% 29.53 in 0 mi ENE 34.5 mph - - Snow Snow
7:20 AM 30.2 °F 14.9 °F 26.6 °F 86% 29.50 in 0.5 mi ENE 31.1 mph 50.6 mph N/A Snow Snow
7:50 AM 32.0 °F 16.7 °F 26.6 °F 80% 29.50 in - ENE 34.5 mph 55.2 mph N/A Snow Snow
8:00 AM 32 °F - 24 °F 61% 29.54 in 0 mi ENE 35.7 mph - - Snow Snow
8:20 AM 32.0 °F 16.2 °F 26.6 °F 80% 29.53 in - ENE 38.0 mph 63.3 mph N/A Snow Light Snow
8:50 AM 30.2 °F 13.9 °F 26.6 °F 86% 29.53 in 0.4 mi ENE 36.8 mph 63.3 mph N/A Snow Snow
9:00 AM 31 °F - 26 °F 72% 29.56 in 0 mi ENE 34.5 mph - - Snow Light Snow
9:20 AM 30.2 °F 13.5 °F 26.6 °F 86% 29.53 in 0.3 mi ENE 39.1 mph 58.7 mph N/A Snow Light Snow
9:50 AM 30.2 °F 14.1 °F 24.8 °F 80% 29.56 in 0.7 mi ENE 35.7 mph 66.7 mph N/A Snow Light Snow
10:20 AM 30.2 °F 13.9 °F 26.6 °F 86% 29.56 in 0.3 mi ENE 36.8 mph 57.5 mph N/A Snow Snow
10:50 AM 32.0 °F 16.2 °F 24.8 °F 75% 29.56 in 0.6 mi ENE 38.0 mph 62.1 mph N/A Snow Light Snow
11:00 AM 31 °F - 25 °F 69% 29.57 in 0 mi ENE 36.8 mph - - Snow Light Snow
11:20 AM 30.2 °F 13.7 °F 26.6 °F 86% 29.56 in - ENE 38.0 mph 55.2 mph N/A Snow Light Snow
11:50 AM 30.2 °F 13.5 °F 26.6 °F 86% 29.59 in - ENE 39.1 mph 70.2 mph N/A Snow Light Snow
12:00 PM 31 °F - 25 °F 69% 29.60 in 0 mi ENE 38.0 mph - - Snow Light Snow
12:20 PM 30.2 °F 13.7 °F 26.6 °F 86% 29.59 in 0.3 mi ENE 38.0 mph 56.4 mph N/A Snow Snow
12:50 PM 28.4 °F 10.6 °F 26.6 °F 93% 29.59 in 0.2 mi ENE 41.4 mph 64.4 mph N/A Snow Heavy Snow
1:00 PM 29 °F - 26 °F 82% 29.62 in 0 mi ENE 40.3 mph - - Snow Heavy Snow
1:20 PM 28.4 °F 10.0 °F 26.6 °F 93% 29.62 in 0.2 mi ENE 44.9 mph 76.0 mph N/A Snow Heavy Snow
1:50 PM 28.4 °F 10.6 °F 26.6 °F 93% 29.62 in 0.2 mi ENE 41.4 mph 80.6 mph N/A Snow Heavy Snow
2:00 PM 28 °F - 27 °F 92% 29.64 in 0 mi East 46.0 mph - - Snow Heavy Snow
2:20 PM 28.4 °F 10.6 °F 26.6 °F 93% 29.65 in 0.2 mi ENE 41.4 mph 58.7 mph N/A Snow Heavy Snow
2:50 PM 28.4 °F 10.2 °F 26.6 °F 93% 29.65 in 0.2 mi ENE 43.7 mph 74.8 mph N/A Snow Snow
3:00 PM 29 °F - 26 °F 82% 29.67 in 0 mi ENE 44.9 mph - - Snow Snow
3:20 PM 30.2 °F 13.1 °F 24.8 °F 80% 29.65 in 0.3 mi ENE 41.4 mph 89.8 mph N/A Snow Snow
3:50 PM 30.2 °F 12.7 °F 26.6 °F 86% 29.68 in 0.3 mi ENE 43.7 mph 81.7 mph N/A Snow Light Snow
4:00 PM 30 °F - 24 °F 69% 29.69 in 0 mi ENE 46.0 mph - - Snow Light Snow
4:20 PM 30.2 °F 12.7 °F 23.0 °F 75% 29.68 in 0.4 mi ENE 43.7 mph 66.7 mph N/A Snow Light Snow
4:50 PM 30.2 °F 12.5 °F 24.8 °F 80% 29.68 in - ENE 44.9 mph 73.6 mph N/A Snow Light Snow
5:00 PM 29 °F - 25 °F 77% 29.72 in 0 mi ENE 46.0 mph - - Snow Light Snow
5:20 PM 30.2 °F 13.5 °F 23.0 °F 75% 29.71 in 0.6 mi ENE 39.1 mph 63.3 mph N/A Snow Light Snow
5:50 PM 30.2 °F 14.1 °F 23.0 °F 75% 29.71 in 1.1 mi ENE 35.7 mph 51.8 mph N/A Snow Light Snow
6:00 PM 30 °F - 20 °F 56% 29.73 in 0 mi ENE 39.1 mph - - Snow Light Snow
6:20 PM 30.2 °F 13.3 °F 21.2 °F 69% 29.71 in 1.0 mi ENE 40.3 mph 62.1 mph N/A   Light Ice Pellets
6:50 PM 32.0 °F 16.0 °F 19.4 °F 60% 29.74 in 1.2 mi ENE 39.1 mph 65.6 mph N/A   Light Ice Pellets
7:00 PM 32 °F - 17 °F 41% 29.76 in 1 mi ENE 34.5 mph - -   Light Ice Pellets
7:20 PM 30.2 °F 13.9 °F 19.4 °F 64% 29.74 in 0.8 mi ENE 36.8 mph 57.5 mph N/A Rain Light Freezing Rain
7:50 PM 30.2 °F 14.1 °F 21.2 °F 69% 29.74 in 1.2 mi ENE 35.7 mph 54.1 mph N/A   Light Ice Pellets
8:00 PM 32 °F - 16 °F 38% 29.78 in 1 mi ENE 35.7 mph - -   Light Ice Pellets
8:20 PM 30.2 °F 13.1 °F 21.2 °F 69% 29.77 in 1.1 mi ENE 41.4 mph 59.8 mph N/A   Light Ice Pellets
8:50 PM 30.2 °F 13.1 °F 19.4 °F 64% 29.77 in 1.0 mi ENE 41.4 mph 65.6 mph N/A Snow Light Snow
9:00 PM 30 °F - 19 °F 50% 29.81 in 0 mi ENE 40.3 mph - - Snow Light Snow
9:20 PM 30.2 °F 13.1 °F 21.2 °F 69% 29.80 in 1.1 mi ENE 41.4 mph 59.8 mph N/A Snow Light Snow
9:50 PM 30.2 °F 12.2 °F 19.4 °F 64% 29.80 in - ENE 47.2 mph 73.6 mph N/A Snow Light Snow
10:00 PM 29 °F - 23 °F 71% 29.82 in 0 mi ENE 48.3 mph - - Snow Light Snow
10:20 PM 30.2 °F 13.5 °F 21.2 °F 69% 29.80 in 1.4 mi ENE 39.1 mph 59.8 mph N/A Snow Light Snow
10:50 PM 32.0 °F 17.2 °F 17.6 °F 55% 29.83 in 1.3 mi ENE 32.2 mph 56.4 mph N/A Rain Light Freezing Rain
11:00 PM 31 °F - 15 °F 39% 29.85 in 1 mi ENE 32.2 mph - -   Light Ice Pellets
11:20 PM 32.0 °F 15.8 °F 17.6 °F 55% 29.83 in 3.1 mi ENE 40.3 mph 55.2 mph N/A Rain Light Rain
11:50 PM 32.0 °F 16.7 °F 15.8 °F 51% 29.83 in 6.2 mi ENE 34.5 mph 54.1 mph N/A Rain Light Rain